Location: Newark
(48.8604°N, 2.3376°E)
Time: 17:12:45
(UTC+00:00)

XW-2C - Pass Details

Date: 11 December 2021
Orbit: 503 x 523 km, 97.5° (Epoch: 17 January)

Event Time Altitude Azimuth Distance (km) Brightness Sun altitude
Rises 17:22:17 0° 183° (S) 2,623 ? -13.7°
Reaches altitude 10° 17:24:27 10° 191° (S) 1,745 ? -14.1°
Maximum altitude 17:28:01 40° 262° (W) 781 ? -14.6°
Drops below altitude 10° 17:31:38 10° 333° (NNW) 1,770 ? -15.2°
Sets 17:33:51 0° 341° (NNW) 2,667 ? -15.5°
